Weather History for KDFI - December, 2012

Change the Weather History Date:

Thursday, December 20, 2012

  Actual Average Record
Temperature  
Mean Temperature 42 °F -  
Max Temperature 51 °F 35 °F 57 °F (1957)
Min Temperature 33 °F 20 °F -9 °F (1963)
Degree Days  
Heating Degree Days 23    
Moisture  
Dew Point 37 °F    
Average Humidity 85    
Maximum Humidity 93    
Minimum Humidity 73    
Precipitation  
Precipitation 0.70 in - - ()
Sea Level Pressure  
Sea Level Pressure 29.39 in    
Wind  
Wind Speed 13 mph (SSE)    
Max Wind Speed 36 mph    
Max Gust Speed 55 mph    
Visibility 6 miles    
Events Rain , Snow    
Averages and records for this station are not official NWS values.
T = Trace of Precipitation, MM = Missing Value Source: NWS Daily Summary

Daily Weather History Graph

Daily Weather History Graph

Search for Another Location

Airport or City:

Trip Planner

Search our weather history database for the weather conditions in past years. The results will help you decide how hot, cold, wet, or windy it might be!

Date:

Astronomy

Dec. 20, 2012 Rise Set
Actual Time 7:59 AM EST 5:11 PM EST
Civil Twilight 7:28 AM EST 5:42 PM EST
Nautical Twilight 6:53 AM EST 6:17 PM EST
Astronomical Twilight 6:20 AM EST 6:51 PM EST
Moon 12:32 PM EST (12/20) 12:42 AM EST (12/20)
Length of Visible Light 10h 14m
Length of Day
9h 11m
First Quarter, 55% of the Moon is Illuminated
Dec 20
First Quarter
Dec 28
Full
Jan 4
Last Quarter
Jan 11
New
Jan 18
First Quarter

Hourly Weather History & Observations

Time (EST) Temp. Windchill Dew Point Humidity Pressure Visibility Wind Dir Wind Speed Gust Speed Precip Events Conditions
12:53 AM 39.0 °F 31.4 °F 33.1 °F 79% 29.99 in 8.0 mi East 12.7 mph - N/A   Overcast
1:53 AM 39.0 °F 32.8 °F 33.1 °F 79% 29.99 in 8.0 mi East 9.2 mph - N/A   Overcast
2:53 AM 39.0 °F 30.6 °F 34.0 °F 82% 29.90 in 7.0 mi East 15.0 mph 20.7 mph 0.00 in   Overcast
3:53 AM 39.9 °F 32.5 °F 34.0 °F 79% 29.84 in 8.0 mi ESE 12.7 mph 21.9 mph N/A   Overcast
4:53 AM 39.9 °F 32.9 °F 35.1 °F 83% 29.82 in 5.0 mi East 11.5 mph - 0.01 in Rain Light Rain
5:53 AM 39.9 °F 32.9 °F 35.1 °F 83% 29.78 in 7.0 mi East 11.5 mph - 0.01 in   Overcast
6:53 AM 39.9 °F 32.5 °F 35.1 °F 83% 29.73 in 7.0 mi East 12.7 mph - 0.00 in Rain Light Rain
7:53 AM 41.0 °F 33.9 °F 35.1 °F 79% 29.69 in 8.0 mi East 12.7 mph - 0.00 in   Overcast
8:53 AM 41.0 °F 34.3 °F 35.1 °F 79% 29.61 in 8.0 mi East 11.5 mph - 0.00 in Rain Light Rain
9:53 AM 39.9 °F 35.1 °F 36.0 °F 86% 29.59 in 2.5 mi East 6.9 mph 18.4 mph 0.12 in Rain Rain
10:02 AM 39.2 °F 31.6 °F 35.6 °F 87% 29.57 in 2.0 mi East 12.7 mph 16.1 mph 0.04 in Rain Rain
10:09 AM 39.2 °F 31.6 °F 35.6 °F 87% 29.56 in 2.0 mi East 12.7 mph - 0.07 in Rain Heavy Rain
10:38 AM 39.2 °F 33.6 °F 37.4 °F 93% 29.55 in 2.5 mi East 8.1 mph - 0.18 in Rain Rain
10:53 AM 41.0 °F 35.2 °F 37.9 °F 89% 29.55 in 3.0 mi East 9.2 mph - 0.20 in Rain Light Rain
10:59 AM 41.0 °F 37.1 °F 37.4 °F 87% 29.54 in 2.5 mi ESE 5.8 mph - 0.01 in Rain Rain
11:14 AM 41.0 °F 36.4 °F 37.4 °F 87% 29.51 in 2.0 mi East 6.9 mph - 0.05 in Rain Rain
11:48 AM 42.8 °F 38.0 °F 41.0 °F 93% 29.47 in 2.5 mi ESE 8.1 mph - 0.10 in Rain Light Rain
11:53 AM 43.0 °F 38.8 °F 41.0 °F 93% 29.47 in 2.5 mi ESE 6.9 mph - 0.10 in Rain Light Rain
12:04 PM 44.6 °F 39.7 °F 42.8 °F 93% 29.44 in 3.0 mi ESE 9.2 mph - 0.01 in Rain Light Rain
12:13 PM 44.6 °F 39.2 °F 42.8 °F 93% 29.42 in 4.0 mi ESE 10.4 mph - 0.02 in Rain Light Rain
12:53 PM 48.0 °F - 45.0 °F 89% 29.37 in 9.0 mi SE 16.1 mph 26.5 mph 0.04 in Rain Light Rain
1:08 PM 48.2 °F - 44.6 °F 87% 29.26 in 7.0 mi ESE 19.6 mph 38.0 mph 0.01 in Rain Light Rain
1:53 PM 48.9 °F - 45.0 °F 86% 29.27 in 10.0 mi SSE 16.1 mph 31.1 mph 0.01 in   Overcast
2:40 PM 50.0 °F - 44.6 °F 82% 29.24 in 10.0 mi SSE 18.4 mph 29.9 mph N/A   Overcast
2:53 PM 50.0 °F - 46.0 °F 86% 29.24 in 10.0 mi SSE 15.0 mph 25.3 mph 0.00 in Rain Light Rain
3:24 PM 50.0 °F - 46.4 °F 87% 29.21 in 10.0 mi South 11.5 mph 28.8 mph 0.00 in   Overcast
3:53 PM 51.1 °F - 46.9 °F 86% 29.20 in 10.0 mi SSE 17.3 mph 27.6 mph 0.00 in   Overcast
4:44 PM 51.8 °F - 46.4 °F 82% 29.17 in 10.0 mi South 17.3 mph 24.2 mph 0.00 in Rain Light Rain
4:53 PM 51.1 °F - 46.9 °F 86% 29.18 in 10.0 mi South 15.0 mph 26.5 mph 0.00 in Rain Light Rain
5:10 PM 48.2 °F - 44.6 °F 87% 29.20 in 3.0 mi SW 35.7 mph 55.2 mph 0.06 in Rain Rain
5:14 PM 44.6 °F 35.7 °F 39.2 °F 81% 29.20 in 2.0 mi SSW 24.2 mph 55.2 mph 0.12 in Rain Heavy Rain
5:20 PM 42.8 °F 34.5 °F 39.2 °F 87% 29.19 in 2.5 mi SSW 18.4 mph 42.6 mph 0.15 in Rain Heavy Rain
5:28 PM 44.6 °F 38.1 °F 39.2 °F 81% 29.18 in 5.0 mi SSW 13.8 mph 24.2 mph 0.16 in Rain Rain
5:53 PM 46.0 °F 40.2 °F 42.1 °F 86% 29.18 in 7.0 mi SSW 12.7 mph 21.9 mph 0.18 in Rain Light Rain
6:09 PM 46.4 °F 38.7 °F 42.8 °F 87% 29.18 in 10.0 mi SW 20.7 mph 27.6 mph 0.00 in Rain Light Rain
6:53 PM 43.0 °F 33.5 °F 37.0 °F 80% 29.23 in 10.0 mi SW 24.2 mph 34.5 mph 0.02 in Rain Light Rain
7:35 PM 39.2 °F 30.8 °F 33.8 °F 81% 29.23 in 10.0 mi SW 15.0 mph 28.8 mph 0.00 in Rain Light Rain
7:45 PM 39.2 °F 30.5 °F 32.0 °F 75% 29.23 in 10.0 mi SSW 16.1 mph 25.3 mph 0.00 in   Overcast
7:53 PM 39.9 °F 29.7 °F 32.0 °F 73% 29.24 in 10.0 mi SSW 23.0 mph 33.4 mph 0.00 in   Overcast
8:53 PM 37.0 °F 27.0 °F 30.0 °F 76% 29.25 in 10.0 mi SSW 18.4 mph 35.7 mph 0.00 in   Overcast
9:36 PM 35.6 °F 25.5 °F 30.2 °F 81% 29.24 in 6.0 mi SSW 17.3 mph 27.6 mph 0.00 in Snow Light Snow
9:53 PM 35.1 °F 24.8 °F 30.9 °F 85% 29.25 in 9.0 mi SSW 17.3 mph 27.6 mph 0.00 in   Overcast
10:00 PM 33.8 °F 23.2 °F 30.2 °F 87% 29.23 in 4.0 mi SSW 17.3 mph 28.8 mph 0.00 in Snow Light Snow
10:10 PM 33.8 °F 22.5 °F 30.2 °F 87% 29.23 in 2.5 mi South 19.6 mph 28.8 mph 0.00 in Snow Light Snow
10:15 PM 33.8 °F 23.9 °F 30.2 °F 87% 29.22 in 1.8 mi South 15.0 mph 28.8 mph 0.00 in Snow Light Snow
10:25 PM 33.8 °F 23.2 °F 30.2 °F 87% 29.22 in 2.5 mi South 17.3 mph 25.3 mph 0.00 in Snow Light Snow
10:33 PM 33.8 °F 23.5 °F 30.2 °F 87% 29.22 in 5.0 mi South 16.1 mph 25.3 mph 0.00 in Snow Light Snow
10:53 PM 34.0 °F 24.6 °F 30.0 °F 85% 29.23 in 10.0 mi South 13.8 mph 21.9 mph 0.00 in   Overcast
11:20 PM 33.8 °F 24.3 °F 30.2 °F 87% 29.20 in 2.5 mi South 13.8 mph 19.6 mph 0.00 in Snow Light Snow
11:23 PM 33.8 °F 25.3 °F 30.2 °F 87% 29.20 in 1.8 mi South 11.5 mph 19.6 mph 0.00 in Snow Light Snow
11:48 PM 33.8 °F 25.3 °F 30.2 °F 87% 29.19 in 2.5 mi SSW 11.5 mph - 0.01 in Snow Light Snow
11:53 PM 33.1 °F 24.9 °F 30.9 °F 92% 29.21 in 2.5 mi SSW 10.4 mph - 0.01 in Snow Light Snow